Satellite-Ground Cal/Val Region Overpasses Predictions

Prediction of Satellite NPP Overpassing Cal/Val Region: PacNW

Region Location: (Latitude: 10.00, Longitude: 139.50) to (Latitude: 22.70, Longitude: 165.60).

Table of predicted overpasses for the next 14.0 days since TLE Epoch: 12/27/2014
Interval Starting Time Starting Location Ending Time Ending Location
1 12/27/2014 14:59:53 ( 22.69, 161.78) 12/27/2014 15:03:29 ( 10.01, 158.78)
2 12/28/2014 03:50:27 ( 10.00, 143.96) 12/28/2014 03:54:03 ( 22.68, 140.96)
3 12/28/2014 14:41:56 ( 18.82, 165.59) 12/28/2014 14:44:26 ( 10.01, 163.54)
4 12/28/2014 16:22:20 ( 22.68, 141.16) 12/28/2014 16:24:17 ( 15.81, 139.50)
5 12/29/2014 03:31:24 ( 10.00, 148.72) 12/29/2014 03:35:00 ( 22.68, 145.72)
6 12/29/2014 16:03:17 ( 22.67, 145.92) 12/29/2014 16:06:52 ( 10.05, 142.93)
7 12/30/2014 03:12:20 ( 10.01, 153.48) 12/30/2014 03:15:56 ( 22.69, 150.48)
8 12/30/2014 15:44:13 ( 22.67, 150.68) 12/30/2014 15:47:48 ( 10.04, 147.69)
9 12/31/2014 02:53:17 ( 10.02, 158.24) 12/31/2014 02:56:53 ( 22.70, 155.23)
10 12/31/2014 15:25:10 ( 22.66, 155.44) 12/31/2014 15:28:45 ( 10.03, 152.45)
11 01/01/2015 02:34:13 ( 10.02, 163.00) 01/01/2015 02:37:48 ( 22.64, 160.01)
12 01/01/2015 15:06:06 ( 22.65, 160.20) 01/01/2015 15:09:41 ( 10.02, 157.21)
13 01/02/2015 02:17:47 ( 19.25, 165.60) 01/02/2015 02:18:45 ( 22.65, 164.76)
14 01/02/2015 03:56:40 ( 10.04, 142.38) 01/02/2015 04:00:07 ( 22.20, 139.50)
15 01/02/2015 14:47:02 ( 22.70, 164.97) 01/02/2015 14:50:38 ( 10.02, 161.96)
16 01/02/2015 16:28:32 ( 22.69, 139.59) 01/02/2015 16:28:38 ( 22.33, 139.50)
17 01/03/2015 03:37:36 ( 10.05, 147.14) 01/03/2015 03:41:11 ( 22.68, 144.14)
18 01/03/2015 16:09:28 ( 22.67, 144.35) 01/03/2015 16:13:03 ( 10.05, 141.36)
19 01/04/2015 03:18:32 ( 10.01, 151.91) 01/04/2015 03:22:08 ( 22.69, 148.90)
20 01/04/2015 15:50:25 ( 22.66, 149.11) 01/04/2015 15:54:00 ( 10.04, 146.11)
21 01/05/2015 02:59:28 ( 10.02, 156.66) 01/05/2015 03:03:04 ( 22.70, 153.66)
22 01/05/2015 15:31:21 ( 22.65, 153.86) 01/05/2015 15:34:56 ( 10.03, 150.87)
23 01/06/2015 02:40:25 ( 10.03, 161.42) 01/06/2015 02:44:00 ( 22.65, 158.43)
24 01/06/2015 15:12:17 ( 22.70, 158.63) 01/06/2015 15:15:53 ( 10.01, 155.63)
25 01/07/2015 02:22:05 ( 12.57, 165.60) 01/07/2015 02:24:57 ( 22.67, 163.19)
26 01/07/2015 04:02:52 ( 10.06, 140.80) 01/07/2015 04:04:27 ( 15.64, 139.51)
27 01/07/2015 14:53:13 ( 22.68, 163.39) 01/07/2015 14:56:48 ( 10.06, 160.40)
28 01/08/2015 03:43:47 ( 10.01, 145.57) 01/08/2015 03:47:23 ( 22.70, 142.57)
29 01/08/2015 14:37:12 ( 11.98, 165.60) 01/08/2015 14:37:45 ( 10.04, 165.16)
30 01/08/2015 16:15:40 ( 22.65, 142.77) 01/08/2015 16:19:15 ( 10.03, 139.78)
31 01/09/2015 03:24:44 ( 10.03, 150.33) 01/09/2015 03:28:19 ( 22.65, 147.34)
32 01/09/2015 15:56:35 ( 22.69, 147.54) 01/09/2015 16:00:11 ( 10.01, 144.53)


NCC Satellite Cal/Val Overpasses Prediction Service
